{"data":{"norad_id":56468,"intl_designator":"2023-064W","name":"STARLINK-5998","alt_names":[],"object_type":"PAYLOAD","status":"ACTIVE","operator":null,"country":"US","launch_date":"2023-05-10","launch_site_code":"AFWTR","launch_vehicle":null,"mission":null,"orbit_class":"UNKNOWN","rcs_meters":null,"size_class":null,"mass_kg":null,"dimensions":null,"purposes":["comms"],"wikipedia_slug":null,"has_3d_model":false,"image_url":null,"decayed_at":null,"tle_current":{"epoch":"2026-05-24T21:11:54.165120Z","epoch_age_seconds":81659,"freshness":"FRESH","line1":"1 56468U 23064W   26144.88326580  .00000885  00000+0  81985-4 0  9996","line2":"2 56468  69.9988 312.1596 0002828 266.8548  93.2287 14.98333595166662","mean_motion":14.98333595,"eccentricity":0.0002828,"inclination_deg":69.9988,"raan_deg":312.1596,"arg_perigee_deg":266.8548,"mean_anomaly_deg":93.2287,"bstar":8.1985e-5,"rev_number":16666,"period_min":96.106768533078,"perigee_km":570.07926232009,"apogee_km":574.01028513131,"semimajor_km":6950.1817737257,"source":"CELESTRAK","updated_at":"2026-05-25T13:38:18.070418Z"}}}